Home   Weather   Tehran   Past weeks
Flag for Iran

Past Weather in Tehran, Iran — Yesterday and Last 2 Weeks

Now
52 °F

Passing clouds.


Feels Like: 48 °F
Forecast: 53 / 40 °F
Wind: 12 mph from Southwest

Location: Tehran-Mehrabad

Current Time: Feb 23, 2019 at 12:40:26 pm

Latest Report: Feb 23, 2019 at 11:30 am


Visibility: N/A

Pressure: 30.15 "Hg (26.16 "Hg at 1179m altitude)

Humidity: 28%

Dew Point: 19 °F

Location of TehranLocation

Past Weather in Tehran — Graph

°F

Tehran Temperature Yesterday

Maximum temperature yesterday: 52 °F (at 2:00 pm)
Minimum temperature yesterday: 37 °F (at 7:00 am)
Average temperature yesterday: 46 °F

High & Low Weather Summary for the Past Weeks

 TemperatureHumidityPressure
High55 °F (Feb 10, 12:30 pm)93% (Feb 10, 4:00 am)30.24 "Hg (Feb 10, 4:00 am)
Low30 °F (Feb 20, 7:00 am)16% (Feb 13, 4:30 pm)29.71 "Hg (Feb 19, 12:30 am)
Average45 °F47%30.00 "Hg
* Reported Feb 8 11:30 am — Feb 23 11:30 am, Tehran. Weather by CustomWeather, © 2019

Note: Actual official high and low records may vary slightly from our data, if they occured in-between our weather recording intervals... More about our weather records

Advertising

Tehran Weather History for the Previous 24 Hours

Scroll right to see more
 ConditionsComfort  
Time TempWeatherWind HumidityBarometerVisibility
11:30 am
Sat, Feb 23
52 °FPassing clouds.12 mph28%30.15 "HgN/A
11:00 am52 °FPassing clouds.9 mph28%30.15 "HgN/A
10:30 am52 °FPassing clouds.7 mph30%30.15 "HgN/A
10:00 am50 °FPassing clouds.7 mph32%30.15 "HgN/A
9:30 am50 °FPassing clouds.5 mph30%30.15 "HgN/A
9:00 am48 °FPassing clouds.5 mph34%30.15 "HgN/A
8:30 am48 °FPassing clouds.No wind34%30.15 "HgN/A
8:00 am45 °FPassing clouds.No wind39%30.15 "HgN/A
7:30 am39 °FPassing clouds.No wind48%30.12 "HgN/A
7:00 am39 °FPassing clouds.No wind48%30.12 "HgN/A
6:30 am39 °FClear.No wind48%30.12 "Hg10 mi
6:00 am41 °FPassing clouds.No wind42%30.09 "HgN/A
5:30 am41 °FPassing clouds.No wind45%30.09 "HgN/A
5:00 am39 °FPassing clouds.No wind45%30.09 "HgN/A
4:30 am43 °FPassing clouds.5 mph39%30.09 "HgN/A
4:00 am41 °FPassing clouds.5 mph42%30.09 "HgN/A
3:30 am41 °FPassing clouds.No wind45%30.09 "HgN/A
3:00 am43 °FPassing clouds.No wind39%30.09 "HgN/A
2:30 am45 °FPassing clouds.5 mph37%30.09 "HgN/A
2:00 am45 °FPassing clouds.5 mph34%30.09 "HgN/A
1:30 am43 °FPassing clouds.7 mph36%30.09 "HgN/A
1:00 am45 °FPassing clouds.5 mph31%30.09 "HgN/A
12:30 am45 °FPassing clouds.5 mph31%30.09 "HgN/A
12:00 am45 °FPassing clouds.5 mph34%30.09 "HgN/A
11:30 pm
Fri, Feb 22
45 °FClear.5 mph31%30.09 "Hg10 mi
11:00 pm46 °FClear.5 mph32%30.09 "Hg10 mi
10:30 pm46 °FClear.7 mph29%30.09 "Hg10 mi
10:00 pm46 °FClear.7 mph32%30.09 "Hg10 mi
9:00 pm46 °FClear.7 mph34%30.07 "Hg10 mi
8:30 pm46 °FPassing clouds.7 mph34%30.07 "HgN/A
8:00 pm46 °FPassing clouds.7 mph34%30.07 "HgN/A
7:30 pm48 °FPassing clouds.5 mph32%30.07 "HgN/A
7:00 pm48 °FPassing clouds.9 mph32%30.07 "HgN/A
6:30 pm50 °FPassing clouds.9 mph30%30.07 "HgN/A
6:00 pm50 °FPassing clouds.12 mph28%30.04 "HgN/A
5:30 pm52 °FScattered clouds.14 mph26%30.04 "HgN/A
5:00 pm52 °FScattered clouds.12 mph26%30.04 "HgN/A
4:30 pm52 °FScattered clouds.9 mph26%30.04 "HgN/A
4:00 pm52 °FPassing clouds.5 mph24%30.04 "HgN/A
3:30 pm52 °FPassing clouds.12 mph24%30.04 "HgN/A
3:00 pm52 °FScattered clouds.7 mph26%30.04 "HgN/A
2:30 pm52 °FPassing clouds.9 mph28%30.04 "HgN/A
2:00 pm52 °FPassing clouds.5 mph26%30.04 "HgN/A
1:30 pm50 °FPassing clouds.5 mph28%30.04 "HgN/A
1:00 pm50 °FScattered clouds.9 mph28%30.07 "HgN/A
12:30 pm50 °FScattered clouds.9 mph28%30.07 "HgN/A
Weather by CustomWeather, © 2019

See weather overview